[[{"header":{"parameterUnit":"m.s-1","parameterCategory":1,"la1":30.2991,"la2":30.254,"lo1":-89.0895,"lo2":-89.0444,"dy":0.0017,"dx":0.0017,"nx":28,"ny":28,"refTime":"2025-06-11T09:00:00:Z","depth":0,"parameterNumber":2,"parameterNumberName":"U-component_of_WINDS"},"data":[0,0,0,0,0,0,0,0,0,0,0,0,0,0,0,0,0,0,0,0,0,0,0,0,0,0,0,0,0,0,0,0,0,0,0,0,0,0,0,0,0,0,0,0,0,0,0,0,0,0,0,0,0,0,0,0,0,0,-2.7837,-2.7837,0,-2.7836,-2.7836,-2.7836,-2.7788,-2.7786,-2.7785,-2.7784,-2.7783,-2.7784,-2.7785,0,0,0,0,0,0,0,0,0,0,0,0,0,-2.7796,-2.7797,-2.7837,-2.7837,-2.7837,-2.7836,-2.7836,-2.7836,-2.7788,-2.7786,-2.7785,-2.7783,-2.7783,-2.7784,-2.7786,0,0,0,0,0,0,0,0,0,0,0,0,0,-2.7807,-2.7798,-2.7837,-2.7812,-2.781,-2.7836,-2.7836,-2.7836,-2.7788,-2.7786,-2.7784,-2.7782,-2.7782,-2.7784,-2.7786,-2.7835,0,0,-2.7791,-2.7792,0,0,0,0,0,0,0,0,-2.7806,-2.7808,-2.7816,-2.7814,-2.7812,-2.781,-2.7822,-2.7836,-2.7789,-2.7797,-2.7784,-2.7782,-2.7794,-2.7794,-2.7798,-2.7835,-2.7835,-2.7791,-2.7792,-2.7793,-2.7794,0,0,0,0,0,0,0,-2.7806,-2.7808,-2.7836,-2.7816,-2.7814,-2.7802,-2.7801,-2.7824,-2.7806,-2.7796,-2.7792,-2.7793,-2.7792,-2.7797,-2.7798,-2.7835,-2.7791,-2.7793,-2.7794,-2.7795,-2.7912,-2.7914,0,0,0,0,0,0,-2.7808,-2.7808,-2.7836,-2.7836,-2.7804,-2.7804,-2.7803,-2.7812,-2.7805,-2.7802,-2.7794,-2.779,-2.7795,-2.7796,-2.7798,-2.7855,-2.7793,-2.7795,-2.7796,-2.791,-2.7913,-2.7915,0,0,0,0,0,0,-2.7808,-2.7811,-2.7836,-2.7821,-2.7823,-2.7807,-2.7817,-2.7813,-2.7818,-2.7804,-2.7801,-2.7803,-2.7793,-2.7795,-2.7826,-2.7854,-2.7795,-2.7797,-2.7908,-2.7911,-2.7914,-2.7969,0,0,0,0,0,0,-2.7807,-2.7811,-2.7829,-2.7822,-2.7825,-2.7865,-2.7819,-2.7815,-2.7821,-2.7816,-2.7811,-2.7808,-2.7792,-2.7824,-2.7828,-2.7855,-2.7798,-2.7905,-2.7909,-2.7913,-2.7965,-2.7974,-2.7981,0,0,0,0,0,-2.7805,-2.7845,-2.783,-2.7834,-2.7847,-2.7866,-2.7868,-2.7848,-2.7824,-2.7842,-2.7833,-2.7809,-2.7851,-2.7827,-2.7831,-2.786,-2.7903,-2.7908,-2.7912,-2.7961,-2.7972,-2.7981,0,0,0,0,0,0,-2.7855,-2.7843,-2.7827,-2.7865,-2.7867,-2.7858,-2.788,-2.786,-2.7869,-2.7864,-2.7839,-2.7838,-2.7873,-2.787,-2.7844,-2.7908,-2.7873,-2.7878,-2.7908,-2.7918,-2.7927,-2.7926,-2.78,0,0,0,0,0,-2.7871,-2.7887,-2.7876,-2.7911,-2.7913,-2.7897,-2.7904,-2.7889,-2.789,-2.789,-2.7884,-2.7886,-2.79,-2.7909,-2.7921,-2.7965,-2.7963,-2.7986,-2.7995,-2.8002,-2.8007,-2.803,-2.804,-2.793,-2.793,-2.793,0,0,-2.7902,-2.7898,-2.791,-2.7921,-2.792,-2.7938,-2.7897,-2.7918,-2.7931,-2.7894,-2.7922,-2.7918,-2.7919,-2.7956,-2.7972,-2.7954,-2.8037,-2.8008,-2.8013,-2.8014,-2.8036,-2.8046,-2.8055,-2.7933,-2.7933,-2.7932,0,0,-2.7969,-2.7968,-2.7997,-2.7998,-2.7998,-2.7987,-2.7995,-2.7989,-2.7985,-2.8013,-2.7986,-2.8002,-2.8026,-2.8027,-2.8031,-2.8102,-2.8079,-2.8107,-2.815,-2.8173,-2.8181,-2.8189,-2.8214,-2.8223,-2.8112,-2.8112,-2.8112,0,-2.8008,-2.8034,-2.8014,-2.8037,-2.8043,-2.8011,-2.804,-2.8042,-2.8046,-2.8051,-2.8031,-2.8062,-2.806,-2.8098,-2.8115,-2.812,-2.8127,-2.8106,-2.8182,-2.8189,-2.8196,-2.8219,-2.8229,-2.8115,-2.8115,-2.8114,-2.8114,0,-2.8083,-2.8102,-2.8125,-2.813,-2.8139,-2.8165,-2.8149,-2.8161,-2.8146,-2.8137,-2.8168,-2.8165,-2.8176,-2.8184,-2.8169,-2.822,-2.8209,-2.8186,-2.815,-2.821,-2.8232,-2.824,-2.812,-2.8119,-2.8118,-2.8117,0,0,-2.8178,-2.8174,-2.8183,-2.8185,-2.8185,-2.8199,-2.8224,-2.8235,-2.8246,-2.8251,-2.8271,-2.8293,-2.8273,-2.8277,-2.8263,-2.8283,-2.8339,-2.8258,-2.8258,-2.8273,-2.8395,-2.8412,-2.8422,-2.8325,-2.8327,-2.8328,-2.8395,0,-2.8243,-2.8285,-2.8269,-2.8312,-2.833,-2.8301,-2.8323,-2.8325,-2.8319,-2.8333,-2.8326,-2.8342,-2.8314,-2.8316,-2.8336,-2.8328,-2.8363,-2.8324,-2.8344,-2.8345,-2.8343,-2.8434,-2.8451,-2.8514,-2.8403,-2.8405,-2.8406,0,-2.8323,-2.8331,-2.8377,-2.8375,-2.8381,-2.8401,-2.8411,-2.8425,-2.8428,-2.8422,-2.8428,-2.841,-2.8435,-2.8401,-2.8435,-2.8408,-2.8416,-2.8414,-2.8416,-2.8416,-2.8378,-2.8435,-2.8533,-2.8542,-2.8419,-2.8418,-2.8417,0,-2.8387,-2.8411,-2.8441,-2.8444,-2.8442,-2.8457,-2.8457,-2.8458,-2.8466,-2.8475,-2.848,-2.8492,-2.8498,-2.8508,-2.8493,-2.847,-2.853,-2.8494,-2.8525,-2.8526,-2.8538,-2.8537,-2.8638,-2.8545,-2.8545,-2.8545,-2.8545,0,-2.846,-2.8489,-2.847,-2.8489,-2.8521,-2.8503,-2.8535,-2.8532,-2.8533,-2.8551,-2.8527,-2.8544,-2.8525,-2.854,-2.853,-2.856,-2.8563,-2.8559,-2.8555,-2.856,-2.8561,-2.8564,-2.8559,-2.8547,-2.8547,-2.8546,-2.8546,0,-2.8536,-2.8525,-2.8556,-2.8553,-2.8553,-2.8576,-2.8573,-2.859,-2.8583,-2.8606,-2.8611,-2.86,-2.8617,-2.8604,-2.8621,-2.8614,-2.8654,-2.8645,-2.8653,-2.865,-2.8682,-2.8678,-2.8787,-2.88,-2.87,-2.8701,-2.8702,0,-2.8582,-2.8604,-2.8603,-2.8614,-2.8616,-2.8633,-2.8641,-2.8625,-2.8635,-2.8641,-2.8658,-2.8673,-2.8684,-2.8714,-2.8707,-2.8721,-2.8711,-2.8748,-2.8713,-2.8717,-2.8711,-2.8709,-2.8711,-2.8755,-2.8756,-2.8757,-2.8758,0,-2.8666,-2.866,-2.8673,-2.8686,-2.8697,-2.8706,-2.8712,-2.8722,-2.8706,-2.8719,-2.8736,-2.8746,-2.8764,-2.878,-2.8791,-2.8791,-2.8772,-2.8769,-2.8777,-2.8782,-2.8785,-2.8783,-2.8671,-2.8766,-2.8766,-2.8765,-2.8764,-2.8764,-2.8728,-2.8746,-2.8749,-2.8765,-2.8769,-2.8776,-2.8793,-2.8789,-2.8803,-2.8817,-2.8807,-2.8828,-2.8832,-2.8845,-2.8848,-2.8864,-2.8849,-2.886,-2.8863,-2.8866,-2.887,-2.8784,-2.8867,-2.8866,-2.8866,-2.8866,-2.8866,0,-2.881,-2.881,-2.8826,-2.8837,-2.885,-2.8832,-2.8839,-2.8851,-2.887,-2.8875,-2.8888,-2.8909,-2.8925,-2.892,-2.8935,-2.8949,-2.8941,-2.8953,-2.8951,-2.8952,-2.8883,-2.8875,-2.896,-2.896,-2.896,-2.896,-2.896,-2.8959,-2.8853,-2.8884,-2.8878,-2.8911,-2.8911,-2.8932,-2.8938,-2.8945,-2.8949,-2.8974,-2.8987,-2.8984,-2.8986,-2.9001,-2.9015,-2.9013,-2.9019,-2.9035,-2.903,-2.8966,-2.8956,-2.8947,-2.8939,-2.9036,-2.9036,-2.9097,-2.9097,-2.9098]},{"header":{"parameterUnit":"m.s-1","parameterCategory":1,"la1":30.2991,"la2":30.254,"lo1":-89.0895,"lo2":-89.0444,"dy":0.0017,"dx":0.0017,"nx":28,"ny":28,"refTime":"2025-06-11T09:00:00:Z","depth":0,"parameterNumber":3,"parameterNumberName":"V-component_of_WINDS"},"data":[0,0,0,0,0,0,0,0,0,0,0,0,0,0,0,0,0,0,0,0,0,0,0,0,0,0,0,0,0,0,0,0,0,0,0,0,0,0,0,0,0,0,0,0,0,0,0,0,0,0,0,0,0,0,0,0,0,0,1.5441,1.5441,0,1.547,1.5471,1.5471,1.5556,1.5558,1.556,1.5562,1.5589,1.5588,1.5587,0,0,0,0,0,0,0,0,0,0,0,0,0,1.5455,1.5454,1.5441,1.5441,1.5441,1.547,1.5471,1.5471,1.5556,1.5558,1.556,1.5562,1.5589,1.5588,1.5586,0,0,0,0,0,0,0,0,0,0,0,0,0,1.5463,1.5454,1.544,1.5487,1.5492,1.547,1.5471,1.5471,1.5555,1.5558,1.5561,1.5564,1.5589,1.5588,1.5586,1.5521,0,0,1.5582,1.5581,0,0,0,0,0,0,0,0,1.5462,1.5462,1.548,1.5484,1.5489,1.5513,1.5486,1.5488,1.5555,1.5531,1.5562,1.5565,1.5561,1.5562,1.5561,1.5522,1.5523,1.5581,1.5581,1.558,1.5579,0,0,0,0,0,0,0,1.5462,1.5461,1.5452,1.548,1.5486,1.5506,1.551,1.5486,1.553,1.5533,1.554,1.5542,1.5564,1.5562,1.5562,1.5524,1.5582,1.558,1.5579,1.5579,1.5434,1.5431,0,0,0,0,0,0,1.5455,1.546,1.5451,1.5453,1.5482,1.5503,1.5508,1.5502,1.553,1.5537,1.554,1.5546,1.5564,1.5564,1.5564,1.5489,1.558,1.5578,1.5578,1.5436,1.5433,1.543,0,0,0,0,0,0,1.5455,1.5453,1.545,1.5459,1.546,1.55,1.5493,1.5501,1.55,1.5535,1.5543,1.553,1.5566,1.5566,1.5531,1.5491,1.5578,1.5576,1.544,1.5435,1.5431,1.5339,0,0,0,0,0,0,1.5455,1.5453,1.5429,1.5457,1.5459,1.5417,1.549,1.55,1.5497,1.5506,1.5529,1.5535,1.5568,1.5533,1.553,1.5491,1.5575,1.5444,1.5438,1.5433,1.5346,1.5332,1.532,0,0,0,0,0,1.5455,1.54,1.5427,1.5425,1.543,1.5415,1.5416,1.5456,1.5494,1.547,1.5493,1.5534,1.5497,1.5529,1.5526,1.5485,1.5446,1.544,1.5433,1.5351,1.5335,1.532,0,0,0,0,0,0,1.5364,1.5405,1.5435,1.5388,1.5398,1.5429,1.54,1.5437,1.5435,1.5443,1.5492,1.5496,1.5455,1.5467,1.5502,1.5424,1.5478,1.5471,1.5417,1.5402,1.5389,1.5386,1.5574,0,0,0,0,0,1.5339,1.5324,1.5361,1.5316,1.5319,1.5359,1.5354,1.5384,1.5396,1.54,1.542,1.5429,1.5419,1.5411,1.5404,1.5349,1.5355,1.532,1.5307,1.5296,1.5288,1.526,1.5245,1.5408,1.5408,1.5408,0,0,1.5286,1.5306,1.5294,1.5298,1.5309,1.5292,1.5361,1.534,1.5328,1.5396,1.5365,1.538,1.5393,1.5348,1.5329,1.5357,1.5245,1.5288,1.5279,1.5277,1.5252,1.5236,1.5223,1.5404,1.5404,1.5405,0,0,1.518,1.5195,1.5159,1.517,1.5186,1.5213,1.5205,1.5232,1.5245,1.5215,1.5266,1.5252,1.5234,1.5241,1.5242,1.5142,1.518,1.5139,1.5071,1.5043,1.503,1.5019,1.4983,1.4969,1.5131,1.5131,1.5131,0,1.5112,1.509,1.5136,1.5112,1.5113,1.5176,1.514,1.5147,1.5159,1.5158,1.519,1.5169,1.5183,1.514,1.5116,1.5115,1.5106,1.5135,1.5028,1.5018,1.5008,1.4974,1.496,1.5126,1.5126,1.5127,1.5128,0,1.5004,1.4988,1.4958,1.497,1.4967,1.4937,1.4978,1.497,1.5001,1.5024,1.4993,1.5012,1.501,1.5003,1.5032,1.4964,1.4981,1.502,1.5075,1.4986,1.4955,1.4942,1.5118,1.512,1.5122,1.5123,0,0,1.484,1.4881,1.4868,1.4875,1.4899,1.4887,1.486,1.486,1.4851,1.4858,1.4837,1.4821,1.4858,1.4859,1.4891,1.4866,1.4785,1.4908,1.4909,1.4884,1.4711,1.4681,1.4665,1.4812,1.4809,1.4808,1.471,0,1.474,1.4697,1.4739,1.4688,1.4673,1.4734,1.4711,1.4722,1.4744,1.4734,1.4758,1.4746,1.4796,1.4797,1.4776,1.4799,1.4751,1.4807,1.4791,1.4789,1.4784,1.4649,1.4616,1.4523,1.4698,1.4696,1.4695,0,1.4617,1.462,1.4567,1.4596,1.4591,1.457,1.4573,1.4564,1.4578,1.4596,1.4599,1.4638,1.4613,1.4668,1.4635,1.4672,1.4668,1.4679,1.4676,1.4675,1.4735,1.4642,1.4495,1.448,1.4676,1.4677,1.4679,0,1.4501,1.4492,1.446,1.4464,1.4496,1.448,1.4492,1.451,1.4508,1.4511,1.451,1.4509,1.4509,1.4507,1.4545,1.4582,1.4507,1.4565,1.452,1.4518,1.4499,1.45,1.4347,1.4499,1.4499,1.4499,1.45,0,1.4384,1.4349,1.4409,1.4388,1.4351,1.44,1.4362,1.4381,1.4397,1.4381,1.4433,1.4417,1.4469,1.4458,1.4487,1.4455,1.4455,1.4467,1.4475,1.4462,1.446,1.4459,1.4465,1.4496,1.4497,1.4497,1.4498,0,1.4247,1.4286,1.4255,1.4289,1.4297,1.4268,1.4297,1.4279,1.4306,1.4285,1.4283,1.4323,1.4314,1.4352,1.4348,1.4368,1.432,1.4339,1.4315,1.432,1.4272,1.4276,1.4112,1.4093,1.4258,1.4256,1.4255,0,1.4169,1.4144,1.4176,1.417,1.4181,1.417,1.4168,1.4216,1.4212,1.4228,1.4208,1.4203,1.4201,1.4183,1.4211,1.4209,1.4228,1.4171,1.4228,1.4215,1.4226,1.4226,1.4224,1.4158,1.4156,1.4155,1.4154,0,1.4026,1.4047,1.4043,1.4046,1.4043,1.4047,1.4055,1.4047,1.4098,1.4091,1.4082,1.4081,1.4079,1.4073,1.4077,1.4089,1.4129,1.4136,1.4125,1.411,1.4097,1.4102,1.4281,1.4139,1.414,1.4141,1.4142,1.4143,1.3916,1.3897,1.3917,1.3911,1.3922,1.3929,1.3914,1.3939,1.3933,1.3936,1.3965,1.395,1.3967,1.3977,1.3986,1.3975,1.4001,1.3986,1.3982,1.3977,1.3968,1.41,1.3976,1.3976,1.3977,1.3977,1.3978,0,1.3775,1.3791,1.3786,1.3796,1.3791,1.3832,1.3843,1.3836,1.3823,1.3836,1.3834,1.3824,1.3819,1.3848,1.3847,1.3833,1.3851,1.3831,1.3832,1.3834,1.3945,1.3954,1.3816,1.3816,1.3816,1.3816,1.3816,1.3816,1.3701,1.367,1.3694,1.367,1.3687,1.3674,1.3677,1.3683,1.3694,1.3681,1.3677,1.3697,1.3717,1.3718,1.3715,1.3724,1.372,1.3693,1.3708,1.381,1.3826,1.3841,1.3849,1.3692,1.3692,1.3598,1.3597,1.3596]}]]